Weather History for Whiteman AFB, MO

Change the Weather History Date:

Tuesday, February 28, 2012

  Actual Average Record
Temperature  
Mean Temperature 52 °F -  
Max Temperature 63 °F 44 °F 73 °F (2006)
Min Temperature 40 °F 27 °F 16 °F (2009)
Degree Days  
Heating Degree Days 14    
Growing Degree Days 2 (Base 50)    
Moisture  
Dew Point 47 °F    
Average Humidity 77    
Maximum Humidity 100    
Minimum Humidity 47    
Precipitation  
Precipitation 0.26 in - - ()
Sea Level Pressure  
Sea Level Pressure 29.89 in    
Wind  
Wind Speed 12 mph (SSE)    
Max Wind Speed 32 mph    
Max Gust Speed 44 mph    
Visibility 9 miles    
Events Rain , Thunderstorm    
Averages and records for this station are not official NWS values.
T = Trace of Precipitation, MM = Missing Value Source: NWS Daily Summary

Daily Weather History Graph

Daily Weather History Graph

Search for Another Location

Airport:

Trip Planner

Search our weather history database for the weather conditions in past years. The results will help you decide how hot, cold, wet, or windy it might be!

Date:

Astronomy

Feb. 28, 2012 Rise Set
Actual Time 6:48 AM CST 6:05 PM CST
Civil Twilight 6:21 AM CST 6:32 PM CST
Nautical Twilight 5:51 AM CST 7:03 PM CST
Astronomical Twilight 5:20 AM CST 7:33 PM CST
Moon 10:01 AM CST (2/28) No Moon Set
Length of Visible Light 12h 10m
Length of Day
11h 16m
Waxing Crescent, 38% of the Moon is Illuminated
Feb 28
Waxing Crescent
Feb 29
First Quarter
Mar 8
Full
Mar 14
Last Quarter
Mar 22
New

Hourly Weather History & Observations

Time (CST) Temp. Windchill Dew Point Humidity Pressure Visibility Wind Dir Wind Speed Gust Speed Precip Events Conditions
12:55 AM 40.3 °F 33.9 °F 21.9 °F 48% 30.34 in 10.0 mi East 10.4 mph - N/A   Overcast
1:55 AM 40.6 °F 33.8 °F 22.3 °F 48% 30.31 in 10.0 mi ESE 11.5 mph - N/A   Overcast
2:55 AM 40.3 °F 34.4 °F 23.5 °F 51% 30.28 in 10.0 mi ESE 9.2 mph - N/A   Overcast
3:55 AM 40.8 °F 35.0 °F 23.7 °F 51% 30.25 in 10.0 mi ESE 9.2 mph - N/A   Overcast
4:55 AM 42.1 °F 36.1 °F 23.9 °F 49% 30.23 in 10.0 mi SE 10.4 mph - N/A   Overcast
5:55 AM 42.6 °F 37.8 °F 25.0 °F 50% 30.22 in 10.0 mi SE 8.1 mph - N/A   Overcast
6:55 AM 43.7 °F 37.3 °F 25.5 °F 49% 30.19 in 10.0 mi SE 12.7 mph 19.6 mph N/A   Mostly Cloudy
7:55 AM 44.1 °F 39.0 °F 26.6 °F 50% 30.19 in 10.0 mi SE 9.2 mph - N/A   Mostly Cloudy
8:55 AM 46.2 °F 40.5 °F 27.9 °F 49% 30.17 in 10.0 mi SSE 12.7 mph - N/A   Mostly Cloudy
9:55 AM 49.3 °F - 30.4 °F 48% 30.14 in 10.0 mi SSE 13.8 mph - N/A   Mostly Cloudy
10:55 AM 54.7 °F - 35.2 °F 48% 30.11 in 10.0 mi South 13.8 mph 20.7 mph N/A   Scattered Clouds
11:55 AM 58.1 °F - 37.9 °F 47% 30.05 in 10.0 mi SSE 11.5 mph 19.6 mph N/A   Scattered Clouds
12:55 PM 63.5 °F - 43.9 °F 49% 29.96 in 10.0 mi SSE 17.3 mph 21.9 mph N/A   Mostly Cloudy
1:29 PM 62.6 °F - 44.6 °F 52% 29.90 in 10.0 mi SE 12.7 mph 21.9 mph N/A Rain Light Rain Showers
1:55 PM 62.6 °F - 45.7 °F 54% 29.88 in 10.0 mi ESE 11.5 mph - 0.00 in   Overcast
2:33 PM 59.0 °F - 48.2 °F 67% 29.84 in 10.0 mi East 4.6 mph - N/A Rain , Thunderstorm Light Thunderstorms and Rain
2:43 PM 59.0 °F - 48.2 °F 67% 29.87 in 2.0 mi SSE 5.8 mph - N/A Rain , Thunderstorm Thunderstorms and Rain
2:55 PM 58.6 °F - 53.4 °F 83% 29.87 in 7.0 mi SE 4.6 mph - 0.13 in Rain , Thunderstorm Light Thunderstorms and Rain
2:58 PM 57.2 °F - 53.6 °F 88% 29.87 in 3.0 mi SE 4.6 mph - N/A Rain Rain
3:00 PM 57.2 °F - 55.4 °F 94% 29.87 in 7.0 mi SSE 3.5 mph - N/A Thunderstorm Overcast
3:17 PM 57.2 °F - 57.2 °F 100% 29.86 in 3.0 mi SE 5.8 mph - N/A Rain Light Rain Showers
3:24 PM 57.2 °F - 57.2 °F 100% 29.86 in 6.0 mi SE 6.9 mph - N/A Rain Light Rain
3:38 PM 55.4 °F - 55.4 °F 100% 29.85 in 9.0 mi SE 8.1 mph - N/A Rain Light Rain
3:43 PM 57.2 °F - 57.2 °F 100% 29.84 in 9.0 mi SE 8.1 mph - N/A   Mostly Cloudy
3:55 PM 56.7 °F - 56.7 °F 100% 29.84 in 10.0 mi SE 6.9 mph - 0.05 in   Mostly Cloudy
4:55 PM 56.7 °F - 56.7 °F 100% 29.78 in 10.0 mi ESE 9.2 mph - N/A   Overcast
5:55 PM 58.8 °F - 58.6 °F 99% 29.74 in 10.0 mi SE 13.8 mph - N/A   Mostly Cloudy
6:55 PM 60.8 °F - 57.9 °F 90% 29.73 in 10.0 mi South 13.8 mph - N/A   Overcast
7:01 PM 60.8 °F - 57.2 °F 88% 29.72 in 7.0 mi South 16.1 mph 23.0 mph N/A Rain Light Rain
7:21 PM 60.8 °F - 59.0 °F 94% 29.71 in 10.0 mi South 13.8 mph - N/A   Overcast
7:35 PM 60.8 °F - 59.0 °F 94% 29.70 in 10.0 mi South 16.1 mph - N/A   Light Drizzle
7:45 PM 60.8 °F - 59.0 °F 94% 29.69 in 10.0 mi South 17.3 mph - N/A   Overcast
7:55 PM 60.3 °F - 59.9 °F 99% 29.69 in 10.0 mi South 18.4 mph 25.3 mph 0.00 in   Overcast
8:55 PM 60.1 °F - 60.1 °F 100% 29.64 in 10.0 mi South 16.1 mph - N/A   Overcast
9:19 PM 60.8 °F - 60.8 °F 100% 29.59 in 10.0 mi South 20.7 mph 28.8 mph N/A   Mostly Cloudy
9:55 PM 60.4 °F - 60.4 °F 100% 29.58 in 10.0 mi South 20.7 mph 29.9 mph N/A   Partly Cloudy
10:48 PM 62.6 °F - 62.6 °F 100% 29.52 in 10.0 mi South 28.8 mph 39.1 mph N/A Thunderstorm Scattered Clouds
10:55 PM 62.4 °F - 62.1 °F 99% 29.51 in 10.0 mi South 29.9 mph 43.7 mph N/A Thunderstorm Scattered Clouds
10:59 PM 62.6 °F - 62.6 °F 100% 29.52 in 5.0 mi South 32.2 mph 43.7 mph N/A Rain , Thunderstorm Light Rain
11:55 PM 61.2 °F - 61.2 °F 100% 29.52 in 10.0 mi South 23.0 mph - 0.08 in Rain , Thunderstorm Light Rain